{"data":{"norad_id":53868,"intl_designator":"2022-114BC","name":"STARLINK-4789","alt_names":[],"object_type":"PAYLOAD","status":"ACTIVE","operator":null,"country":"US","launch_date":"2022-09-19","launch_site_code":"AFETR","launch_vehicle":null,"mission":null,"orbit_class":"UNKNOWN","rcs_meters":null,"size_class":null,"mass_kg":null,"dimensions":null,"purposes":["comms"],"wikipedia_slug":null,"has_3d_model":false,"image_url":null,"decayed_at":null,"tle_current":{"epoch":"2026-05-24T19:09:32.643072Z","epoch_age_seconds":92221,"freshness":"FRESH","line1":"1 53868U 22114BC  26144.79829448  .00000040  00000+0  20629-4 0  9994","line2":"2 53868  53.2161 282.3618 0001277  91.8003 268.3136 15.08837565204887","mean_motion":15.08837565,"eccentricity":0.0001277,"inclination_deg":53.2161,"raan_deg":282.3618,"arg_perigee_deg":91.8003,"mean_anomaly_deg":268.3136,"bstar":2.0629e-5,"rev_number":20488,"period_min":95.437708697291,"perigee_km":538.86741751886,"apogee_km":540.6342460711,"semimajor_km":6917.887831795,"source":"CELESTRAK","updated_at":"2026-05-25T13:38:17.580165Z"}}}